Precipitable_Water
0.76 0.77 0.79 0.80 0.81 0.80 0.81 0.82 0.82 0.82 0.81 0.82 0.81 0.80 0.81 0.83 0.85 0.86 0.89 0.87 0.88 0.93 0.99 1.06 1.14 1.19 1.22 1.26 1.32 1.35 1.35 1.38 1.43 1.46 1.45 1.42 1.45 1.47 1.48 1.45 1.38 1.33 1.30 1.31 1.35 1.35 1.34 1.32 1.31 1.33 1.36 1.32 1.32 1.33 1.32 1.29 1.28 1.27 1.29 1.31 1.30 1.31 1.24 1.14 0.98 0.85 0.92 1.01 0.96 0.93 1.01 1.06 1.05 1.12 1.10 1.12 1.14 1.16 1.17 1.17 1.20 1.21 1.20 1.17 1.15
0.73 0.75 0.76 0.78 0.78 0.79 0.80 0.82 0.83 0.82 0.79 0.80 0.79 0.81 0.82 0.83 0.85 0.89 0.87 0.89 0.90 0.90 0.94 1.01 1.07 1.17 1.23 1.27 1.31 1.36 1.38 1.37 1.41 1.46 1.44 1.41 1.42 1.47 1.47 1.45 1.40 1.34 1.32 1.27 1.30 1.35 1.35 1.32 1.32 1.32 1.35 1.32 1.32 1.30 1.30 1.30 1.28 1.25 1.26 1.28 1.28 1.29 1.33 1.22 1.11 0.99 0.83 0.97 0.94 0.99 0.98 1.05 0.97 1.10 1.07 1.07 1.09 1.12 1.09 1.11 1.16 1.20 1.20 1.19 1.15
0.73 0.74 0.74 0.75 0.76 0.78 0.79 0.79 0.80 0.80 0.79 0.79 0.79 0.81 0.82 0.84 0.87 0.86 0.90 0.89 0.90 0.91 0.94 0.97 1.01 1.07 1.14 1.23 1.29 1.32 1.35 1.38 1.42 1.44 1.42 1.41 1.44 1.47 1.48 1.46 1.42 1.37 1.33 1.30 1.29 1.30 1.29 1.27 1.28 1.33 1.37 1.33 1.32 1.32 1.33 1.31 1.31 1.27 1.24 1.28 1.26 1.28 1.32 1.32 1.22 1.07 0.96 0.93 1.02 0.97 0.97 0.99 0.96 0.99 1.08 1.10 1.11 1.11 1.06 1.07 1.11 1.18 1.21 1.21 1.17
0.71 0.72 0.74 0.75 0.76 0.77 0.77 0.79 0.78 0.77 0.77 0.80 0.80 0.81 0.83 0.84 0.86 0.87 0.88 0.92 0.90 0.90 0.91 0.95 1.00 1.02 1.05 1.13 1.21 1.27 1.32 1.36 1.40 1.42 1.36 1.39 1.42 1.43 1.44 1.44 1.41 1.39 1.34 1.31 1.29 1.29 1.28 1.27 1.28 1.32 1.36 1.33 1.30 1.29 1.32 1.32 1.31 1.29 1.26 1.26 1.26 1.25 1.29 1.32 1.31 1.22 1.14 0.99 1.02 1.02 1.02 0.99 0.98 1.03 1.06 1.10 1.08 1.07 1.06 1.07 1.14 1.16 1.18 1.21 1.20
0.69 0.71 0.72 0.73 0.74 0.75 0.76 0.78 0.78 0.78 0.78 0.81 0.82 0.83 0.83 0.83 0.84 0.86 0.87 0.87 0.90 0.89 0.89 0.90 0.92 0.96 0.99 1.04 1.12 1.20 1.27 1.33 1.36 1.39 1.40 1.40 1.41 1.42 1.42 1.41 1.39 1.37 1.34 1.32 1.32 1.32 1.32 1.31 1.30 1.33 1.36 1.33 1.30 1.28 1.31 1.29 1.30 1.30 1.28 1.27 1.24 1.25 1.28 1.30 1.30 1.30 1.22 1.11 1.08 1.13 1.12 1.08 1.07 1.04 1.05 0.99 1.01 1.04 1.06 1.04 1.07 1.13 1.16 1.19 1.21
0.67 0.68 0.70 0.70 0.71 0.72 0.74 0.76 0.77 0.78 0.80 0.82 0.84 0.87 0.87 0.85 0.83 0.85 0.88 0.88 0.88 0.88 0.84 0.86 0.87 0.90 0.96 1.02 1.09 1.17 1.24 1.29 1.32 1.34 1.35 1.34 1.34 1.34 1.35 1.35 1.35 1.35 1.34 1.32 1.31 1.32 1.32 1.33 1.37 1.40 1.40 1.36 1.33 1.33 1.33 1.30 1.31 1.31 1.30 1.30 1.28 1.25 1.24 1.27 1.29 1.29 1.27 1.22 1.17 1.13 1.15 1.09 1.07 1.06 1.07 1.04 0.97 0.93 0.95 1.00 1.08 1.12 1.11 1.11 1.15
0.64 0.64 0.65 0.66 0.66 0.67 0.69 0.72 0.75 0.77 0.79 0.82 0.85 0.87 0.90 0.91 0.87 0.83 0.86 0.88 0.89 0.88 0.88 0.85 0.87 0.87 0.90 0.96 1.03 1.10 1.17 1.23 1.25 1.28 1.30 1.29 1.26 1.25 1.26 1.28 1.29 1.31 1.33 1.33 1.34 1.36 1.37 1.36 1.36 1.39 1.41 1.43 1.42 1.40 1.36 1.34 1.35 1.34 1.33 1.33 1.34 1.29 1.24 1.25 1.27 1.26 1.26 1.24 1.24 1.21 1.16 1.18 1.15 1.06 1.12 1.13 1.05 0.98 0.90 0.91 0.96 1.07 1.10 1.08 1.07
0.61 0.61 0.62 0.62 0.62 0.64 0.66 0.70 0.73 0.76 0.79 0.82 0.84 0.85 0.88 0.90 0.91 0.89 0.86 0.84 0.85 0.87 0.89 0.89 0.91 0.91 0.91 0.92 0.95 1.01 1.07 1.09 1.12 1.15 1.18 1.20 1.20 1.20 1.21 1.22 1.24 1.25 1.28 1.32 1.33 1.33 1.34 1.36 1.38 1.41 1.43 1.45 1.44 1.45 1.45 1.37 1.38 1.36 1.38 1.38 1.37 1.33 1.27 1.26 1.25 1.25 1.25 1.24 1.22 1.20 1.21 1.17 1.20 1.20 1.21 1.17 1.05 0.98 0.96 0.91 0.87 0.95 1.02 1.08 1.08
0.62 0.62 0.62 0.61 0.61 0.64 0.66 0.69 0.72 0.74 0.76 0.78 0.81 0.83 0.86 0.89 0.91 0.91 0.90 0.87 0.88 0.88 0.89 0.91 0.90 0.89 0.91 0.91 0.91 0.93 0.95 0.99 1.00 1.01 1.03 1.08 1.12 1.12 1.15 1.18 1.19 1.19 1.22 1.26 1.30 1.32 1.33 1.35 1.37 1.38 1.42 1.44 1.46 1.46 1.46 1.47 1.42 1.37 1.40 1.41 1.38 1.36 1.33 1.31 1.28 1.27 1.27 1.25 1.22 1.25 1.22 1.19 1.19 1.18 1.16 1.11 1.03 0.96 0.99 0.96 0.92 1.01 1.08 1.06 1.08
0.63 0.63 0.61 0.62 0.63 0.65 0.67 0.69 0.71 0.73 0.74 0.76 0.80 0.83 0.84 0.86 0.87 0.87 0.88 0.89 0.89 0.91 0.91 0.90 0.89 0.87 0.87 0.90 0.91 0.86 0.78 0.77 0.78 0.82 0.87 0.91 0.95 1.00 1.04 1.09 1.15 1.17 1.18 1.19 1.23 1.28 1.31 1.33 1.35 1.35 1.38 1.42 1.42 1.44 1.46 1.47 1.49 1.44 1.41 1.41 1.38 1.35 1.32 1.31 1.29 1.29 1.27 1.23 1.22 1.23 1.20 1.18 1.17 1.20 1.19 1.19 1.20 1.20 1.12 1.04 0.96 1.00 1.06 1.03 1.06
0.56 0.61 0.61 0.63 0.64 0.66 0.67 0.69 0.71 0.73 0.74 0.76 0.79 0.82 0.84 0.85 0.85 0.85 0.86 0.86 0.86 0.88 0.90 0.89 0.88 0.88 0.86 0.81 0.75 0.73 0.73 0.73 0.75 0.76 0.78 0.82 0.88 0.92 0.96 1.00 1.05 1.09 1.13 1.13 1.15 1.20 1.26 1.31 1.33 1.35 1.36 1.39 1.40 1.39 1.38 1.44 1.50 1.52 1.51 1.46 1.44 1.40 1.34 1.29 1.27 1.28 1.25 1.23 1.24 1.23 1.21 1.18 1.19 1.23 1.23 1.24 1.26 1.22 1.18 1.15 1.09 1.06 1.01 0.95 0.87
0.43 0.50 0.59 0.62 0.63 0.65 0.66 0.68 0.69 0.72 0.74 0.76 0.78 0.81 0.83 0.83 0.82 0.82 0.83 0.84 0.86 0.87 0.85 0.87 0.89 0.90 0.87 0.79 0.74 0.71 0.69 0.69 0.70 0.71 0.73 0.75 0.78 0.83 0.89 0.93 0.98 1.02 1.06 1.09 1.11 1.14 1.18 1.25 1.33 1.39 1.41 1.41 1.42 1.42 1.41 1.41 1.44 1.49 1.50 1.50 1.47 1.46 1.45 1.39 1.33 1.32 1.33 1.28 1.23 1.19 1.20 1.19 1.19 1.23 1.23 1.24 1.23 1.26 1.27 1.24 1.18 1.12 1.07 1.02 0.99
0.35 0.38 0.46 0.55 0.61 0.64 0.65 0.66 0.67 0.69 0.71 0.73 0.75 0.77 0.78 0.78 0.79 0.79 0.79 0.82 0.84 0.84 0.84 0.84 0.85 0.88 0.89 0.84 0.79 0.75 0.72 0.70 0.69 0.69 0.69 0.70 0.72 0.76 0.80 0.84 0.88 0.93 0.99 1.03 1.07 1.10 1.14 1.18 1.22 1.28 1.33 1.37 1.41 1.41 1.42 1.44 1.44 1.45 1.47 1.49 1.49 1.48 1.47 1.47 1.48 1.46 1.43 1.36 1.28 1.23 1.22 1.23 1.21 1.22 1.27 1.26 1.32 1.28 1.29 1.24 1.23 1.21 1.18 1.12 1.07
0.32 0.33 0.36 0.41 0.47 0.56 0.62 0.64 0.65 0.66 0.68 0.69 0.71 0.72 0.73 0.73 0.74 0.76 0.78 0.79 0.79 0.80 0.81 0.80 0.82 0.82 0.83 0.83 0.82 0.78 0.75 0.73 0.71 0.70 0.69 0.69 0.70 0.73 0.74 0.76 0.80 0.84 0.89 0.94 0.99 1.05 1.09 1.11 1.13 1.18 1.26 1.31 1.35 1.36 1.37 1.38 1.42 1.45 1.46 1.47 1.46 1.47 1.48 1.48 1.46 1.49 1.51 1.45 1.39 1.28 1.28 1.33 1.25 1.28 1.35 1.39 1.32 1.26 1.26 1.23 1.26 1.25 1.23 1.20 1.23
0.32 0.33 0.33 0.35 0.37 0.40 0.47 0.53 0.58 0.63 0.65 0.66 0.67 0.67 0.69 0.70 0.71 0.71 0.72 0.72 0.72 0.73 0.74 0.75 0.76 0.77 0.77 0.77 0.78 0.77 0.76 0.74 0.73 0.72 0.71 0.70 0.70 0.71 0.72 0.73 0.73 0.75 0.79 0.82 0.86 0.92 1.00 1.06 1.09 1.11 1.17 1.24 1.31 1.35 1.33 1.31 1.32 1.33 1.36 1.38 1.41 1.43 1.43 1.43 1.44 1.46 1.47 1.47 1.44 1.40 1.36 1.37 1.38 1.40 1.42 1.45 1.42 1.39 1.34 1.30 1.32 1.33 1.36 1.42 1.40
0.32 0.33 0.33 0.34 0.35 0.35 0.36 0.39 0.43 0.48 0.53 0.57 0.60 0.62 0.64 0.66 0.66 0.68 0.68 0.69 0.70 0.71 0.71 0.72 0.72 0.72 0.72 0.72 0.71 0.71 0.72 0.72 0.72 0.72 0.72 0.72 0.73 0.73 0.72 0.71 0.71 0.72 0.72 0.74 0.77 0.82 0.87 0.93 0.97 1.01 1.07 1.14 1.22 1.29 1.31 1.31 1.25 1.22 1.21 1.26 1.32 1.36 1.39 1.44 1.47 1.45 1.44 1.46 1.46 1.44 1.44 1.43 1.43 1.43 1.45 1.46 1.46 1.48 1.46 1.43 1.43 1.38 1.33 1.30 1.24
0.31 0.32 0.33 0.34 0.34 0.35 0.35 0.35 0.37 0.39 0.41 0.43 0.46 0.50 0.54 0.58 0.62 0.66 0.65 0.64 0.64 0.65 0.66 0.67 0.68 0.68 0.68 0.68 0.67 0.66 0.67 0.68 0.68 0.68 0.68 0.69 0.70 0.70 0.69 0.69 0.69 0.69 0.70 0.71 0.73 0.76 0.79 0.83 0.87 0.90 0.95 1.02 1.12 1.16 1.20 1.21 1.17 1.15 1.16 1.16 1.17 1.21 1.28 1.39 1.45 1.46 1.44 1.43 1.44 1.44 1.45 1.44 1.44 1.46 1.47 1.47 1.47 1.49 1.47 1.39 1.32 1.34 1.26 1.18 1.15
0.32 0.33 0.33 0.34 0.35 0.35 0.35 0.35 0.34 0.36 0.37 0.38 0.40 0.42 0.45 0.48 0.50 0.54 0.57 0.61 0.62 0.62 0.62 0.61 0.62 0.63 0.63 0.63 0.63 0.62 0.63 0.64 0.63 0.64 0.64 0.66 0.68 0.68 0.67 0.66 0.65 0.65 0.67 0.68 0.69 0.71 0.74 0.77 0.79 0.81 0.83 0.88 0.93 0.99 1.05 1.09 1.09 1.10 1.10 1.10 1.09 1.10 1.16 1.29 1.36 1.38 1.42 1.45 1.43 1.40 1.40 1.43 1.43 1.42 1.44 1.46 1.48 1.52 1.45 1.31 1.36 1.38 1.27 1.23 1.15
0.33 0.34 0.34 0.36 0.36 0.37 0.38 0.37 0.36 0.35 0.36 0.36 0.39 0.40 0.42 0.43 0.44 0.46 0.47 0.50 0.54 0.61 0.65 0.63 0.61 0.61 0.61 0.60 0.61 0.60 0.60 0.60 0.60 0.60 0.60 0.60 0.61 0.63 0.63 0.63 0.61 0.62 0.62 0.64 0.67 0.68 0.70 0.72 0.74 0.75 0.77 0.79 0.82 0.86 0.92 0.96 0.98 1.01 1.02 1.03 1.03 1.06 1.13 1.22 1.25 1.28 1.32 1.33 1.34 1.34 1.33 1.39 1.41 1.40 1.38 1.42 1.45 1.48 1.49 1.45 1.46 1.38 1.30 1.27 1.23
0.36 0.37 0.37 0.38 0.38 0.38 0.38 0.39 0.39 0.38 0.38 0.38 0.39 0.39 0.41 0.42 0.42 0.43 0.44 0.46 0.46 0.48 0.52 0.57 0.60 0.61 0.61 0.60 0.59 0.59 0.59 0.59 0.59 0.58 0.57 0.57 0.57 0.57 0.57 0.56 0.56 0.57 0.58 0.59 0.58 0.61 0.64 0.66 0.69 0.71 0.72 0.73 0.75 0.78 0.81 0.86 0.88 0.92 0.96 0.96 0.97 0.99 1.13 1.15 1.16 1.21 1.27 1.28 1.23 1.23 1.28 1.35 1.40 1.41 1.40 1.40 1.42 1.44 1.44 1.46 1.46 1.42 1.36 1.33 1.29
0.37 0.37 0.37 0.38 0.38 0.38 0.39 0.39 0.39 0.40 0.40 0.40 0.40 0.40 0.41 0.41 0.40 0.40 0.39 0.41 0.42 0.43 0.44 0.46 0.47 0.51 0.56 0.58 0.59 0.59 0.59 0.58 0.58 0.58 0.57 0.56 0.56 0.56 0.55 0.54 0.53 0.53 0.53 0.54 0.55 0.56 0.58 0.59 0.61 0.63 0.66 0.68 0.70 0.72 0.74 0.77 0.80 0.83 0.86 0.89 0.97 1.05 1.11 1.09 1.11 1.16 1.17 1.21 1.27 1.31 1.29 1.29 1.34 1.37 1.37 1.38 1.39 1.41 1.42 1.45 1.47 1.46 1.40 1.33 1.28
0.38 0.38 0.37 0.37 0.37 0.38 0.38 0.39 0.40 0.40 0.41 0.41 0.40 0.39 0.41 0.42 0.41 0.41 0.40 0.40 0.39 0.38 0.39 0.39 0.39 0.40 0.42 0.45 0.49 0.52 0.55 0.56 0.55 0.56 0.55 0.55 0.54 0.54 0.53 0.53 0.53 0.53 0.52 0.52 0.53 0.54 0.55 0.57 0.59 0.61 0.62 0.62 0.62 0.63 0.66 0.69 0.72 0.75 0.79 0.85 0.91 0.97 1.02 1.05 1.08 1.10 1.11 1.15 1.17 1.19 1.22 1.25 1.25 1.27 1.29 1.31 1.34 1.40 1.42 1.43 1.46 1.48 1.48 1.45 1.37
0.38 0.37 0.36 0.36 0.37 0.38 0.38 0.38 0.38 0.40 0.40 0.40 0.38 0.37 0.38 0.39 0.39 0.39 0.38 0.37 0.36 0.36 0.36 0.36 0.36 0.36 0.37 0.38 0.40 0.41 0.42 0.45 0.47 0.49 0.50 0.51 0.51 0.51 0.51 0.51 0.51 0.51 0.49 0.49 0.51 0.52 0.55 0.56 0.58 0.59 0.60 0.60 0.61 0.61 0.60 0.61 0.63 0.66 0.71 0.75 0.80 0.87 0.93 0.96 1.00 1.01 1.02 1.04 1.07 1.09 1.13 1.18 1.20 1.22 1.25 1.27 1.29 1.33 1.40 1.45 1.45 1.46 1.47 1.48 1.48
0.38 0.37 0.35 0.35 0.35 0.36 0.38 0.39 0.39 0.40 0.39 0.39 0.38 0.37 0.36 0.36 0.36 0.35 0.34 0.33 0.32 0.31 0.31 0.32 0.31 0.30 0.31 0.32 0.34 0.36 0.38 0.38 0.39 0.40 0.42 0.44 0.46 0.47 0.48 0.49 0.50 0.50 0.50 0.49 0.50 0.51 0.52 0.53 0.55 0.57 0.57 0.58 0.58 0.59 0.59 0.59 0.59 0.59 0.61 0.64 0.70 0.76 0.82 0.87 0.92 0.96 0.98 0.96 0.96 1.01 1.06 1.14 1.19 1.20 1.24 1.30 1.30 1.28 1.33 1.43 1.48 1.49 1.47 1.46 1.47
0.37 0.36 0.34 0.34 0.35 0.36 0.37 0.37 0.37 0.38 0.38 0.38 0.36 0.36 0.35 0.35 0.33 0.34 0.33 0.32 0.31 0.30 0.30 0.30 0.29 0.29 0.29 0.29 0.30 0.32 0.33 0.34 0.34 0.35 0.35 0.36 0.38 0.40 0.42 0.44 0.45 0.46 0.46 0.47 0.49 0.49 0.50 0.52 0.53 0.54 0.55 0.55 0.56 0.56 0.57 0.58 0.58 0.59 0.60 0.60 0.61 0.63 0.69 0.76 0.83 0.90 0.92 0.91 0.92 0.95 1.03 1.10 1.17 1.24 1.34 1.39 1.45 1.43 1.37 1.37 1.46 1.48 1.48 1.49 1.47
0.37 0.36 0.35 0.35 0.35 0.36 0.35 0.36 0.36 0.37 0.37 0.38 0.37 0.37 0.36 0.35 0.34 0.33 0.33 0.33 0.32 0.31 0.31 0.31 0.30 0.30 0.30 0.31 0.32 0.33 0.34 0.34 0.34 0.35 0.35 0.35 0.34 0.35 0.36 0.38 0.39 0.41 0.43 0.43 0.44 0.45 0.46 0.48 0.50 0.51 0.52 0.52 0.53 0.53 0.53 0.55 0.57 0.58 0.59 0.60 0.60 0.60 0.61 0.63 0.69 0.77 0.83 0.90 0.95 0.94 0.96 1.05 1.16 1.24 1.30 1.36 1.41 1.40 1.37 1.35 1.36 1.38 1.41 1.39 1.36
0.37 0.36 0.35 0.35 0.35 0.36 0.35 0.35 0.35 0.35 0.36 0.37 0.37 0.38 0.37 0.36 0.35 0.34 0.33 0.33 0.32 0.32 0.32 0.32 0.31 0.31 0.31 0.32 0.33 0.35 0.35 0.35 0.35 0.36 0.36 0.36 0.35 0.35 0.35 0.35 0.36 0.37 0.38 0.38 0.40 0.41 0.43 0.44 0.44 0.46 0.47 0.49 0.50 0.51 0.51 0.53 0.53 0.55 0.57 0.60 0.61 0.61 0.61 0.62 0.64 0.69 0.76 0.84 0.92 0.98 1.02 1.06 1.12 1.18 1.22 1.27 1.31 1.38 1.40 1.38 1.34 1.33 1.37 1.39 1.34
0.36 0.35 0.35 0.35 0.35 0.36 0.35 0.35 0.35 0.34 0.34 0.34 0.34 0.35 0.36 0.37 0.35 0.34 0.34 0.33 0.33 0.33 0.33 0.33 0.32 0.33 0.33 0.34 0.34 0.35 0.35 0.36 0.36 0.36 0.36 0.36 0.36 0.37 0.37 0.36 0.36 0.35 0.35 0.36 0.37 0.39 0.40 0.41 0.41 0.42 0.42 0.43 0.44 0.45 0.46 0.47 0.48 0.49 0.51 0.54 0.57 0.60 0.63 0.65 0.67 0.70 0.74 0.82 0.91 0.99 1.04 1.07 1.06 1.09 1.13 1.17 1.21 1.28 1.36 1.39 1.32 1.31 1.38 1.39 1.31
0.37 0.35 0.35 0.35 0.35 0.37 0.36 0.36 0.36 0.34 0.33 0.33 0.34 0.34 0.33 0.34 0.34 0.35 0.37 0.38 0.37 0.35 0.35 0.35 0.36 0.36 0.36 0.35 0.34 0.34 0.36 0.36 0.37 0.40 0.40 0.40 0.39 0.37 0.37 0.37 0.37 0.37 0.38 0.38 0.37 0.38 0.38 0.38 0.37 0.37 0.37 0.37 0.37 0.38 0.39 0.41 0.42 0.44 0.46 0.47 0.49 0.53 0.56 0.60 0.61 0.64 0.69 0.75 0.80 0.88 0.95 1.02 1.05 1.09 1.11 1.12 1.15 1.22 1.30 1.32 1.37 1.31 1.33 1.36 1.29
0.36 0.35 0.36 0.36 0.37 0.38 0.38 0.37 0.37 0.36 0.34 0.32 0.31 0.32 0.36 0.35 0.35 0.34 0.34 0.36 0.37 0.38 0.38 0.36 0.37 0.38 0.37 0.38 0.38 0.36 0.35 0.38 0.42 0.42 0.41 0.41 0.41 0.41 0.41 0.41 0.41 0.40 0.40 0.40 0.38 0.36 0.35 0.36 0.36 0.35 0.35 0.35 0.35 0.35 0.36 0.37 0.38 0.39 0.41 0.44 0.47 0.48 0.49 0.52 0.56 0.58 0.64 0.69 0.74 0.79 0.87 0.96 1.00 1.04 1.06 1.07 1.12 1.21 1.28 1.29 1.27 1.32 1.29 1.28 1.25
0.37 0.37 0.37 0.37 0.38 0.39 0.38 0.38 0.38 0.37 0.35 0.33 0.32 0.30 0.29 0.33 0.34 0.34 0.34 0.34 0.34 0.35 0.35 0.36 0.37 0.37 0.37 0.36 0.38 0.40 0.40 0.40 0.40 0.41 0.41 0.41 0.41 0.41 0.41 0.41 0.41 0.41 0.41 0.40 0.38 0.36 0.34 0.34 0.35 0.36 0.36 0.36 0.35 0.36 0.36 0.36 0.37 0.38 0.39 0.41 0.44 0.45 0.46 0.48 0.51 0.54 0.56 0.58 0.63 0.72 0.80 0.86 0.93 1.00 1.02 1.05 1.08 1.14 1.22 1.27 1.28 1.27 1.25 1.25 1.24
0.36 0.38 0.38 0.39 0.39 0.38 0.38 0.38 0.37 0.36 0.34 0.33 0.31 0.29 0.27 0.26 0.27 0.31 0.32 0.32 0.32 0.32 0.32 0.33 0.33 0.33 0.33 0.34 0.34 0.35 0.36 0.37 0.36 0.36 0.35 0.36 0.39 0.40 0.40 0.40 0.40 0.41 0.42 0.42 0.39 0.38 0.37 0.35 0.35 0.36 0.37 0.37 0.37 0.37 0.37 0.37 0.38 0.38 0.39 0.39 0.41 0.44 0.45 0.46 0.49 0.50 0.52 0.54 0.57 0.62 0.70 0.79 0.86 0.93 0.98 1.01 1.06 1.10 1.13 1.16 1.20 1.20 1.21 1.27 1.27
0.36 0.38 0.39 0.39 0.38 0.38 0.38 0.37 0.36 0.35 0.33 0.31 0.30 0.29 0.27 0.26 0.24 0.24 0.27 0.29 0.30 0.30 0.30 0.30 0.31 0.31 0.29 0.29 0.30 0.29 0.29 0.30 0.30 0.30 0.30 0.30 0.32 0.35 0.37 0.38 0.38 0.39 0.40 0.39 0.38 0.38 0.38 0.38 0.37 0.37 0.37 0.37 0.38 0.39 0.39 0.39 0.38 0.39 0.39 0.40 0.40 0.42 0.44 0.46 0.48 0.49 0.50 0.51 0.53 0.56 0.62 0.71 0.80 0.87 0.93 0.98 1.01 1.04 1.09 1.11 1.15 1.17 1.16 1.16 1.21
0.36 0.38 0.38 0.38 0.37 0.37 0.38 0.38 0.36 0.34 0.33 0.32 0.30 0.29 0.28 0.27 0.26 0.25 0.24 0.23 0.23 0.24 0.26 0.27 0.27 0.28 0.27 0.27 0.26 0.24 0.24 0.25 0.25 0.26 0.27 0.27 0.28 0.29 0.30 0.33 0.35 0.37 0.35 0.34 0.35 0.36 0.38 0.39 0.38 0.38 0.38 0.39 0.40 0.40 0.41 0.41 0.41 0.40 0.41 0.42 0.43 0.44 0.45 0.47 0.47 0.47 0.49 0.51 0.53 0.54 0.56 0.60 0.66 0.76 0.85 0.92 0.99 1.04 1.06 1.09 1.11 1.12 1.12 1.12 1.12
0.34 0.36 0.37 0.38 0.38 0.38 0.38 0.38 0.37 0.35 0.34 0.32 0.31 0.29 0.28 0.28 0.27 0.25 0.24 0.23 0.22 0.21 0.22 0.23 0.25 0.25 0.25 0.24 0.23 0.21 0.20 0.21 0.22 0.23 0.24 0.24 0.24 0.24 0.25 0.24 0.24 0.27 0.29 0.30 0.32 0.33 0.35 0.37 0.38 0.39 0.39 0.39 0.40 0.40 0.41 0.42 0.42 0.42 0.41 0.42 0.43 0.44 0.46 0.46 0.47 0.47 0.48 0.49 0.51 0.53 0.55 0.57 0.61 0.68 0.74 0.81 0.89 0.95 1.00 1.05 1.08 1.09 1.08 1.10 1.11
0.33 0.35 0.36 0.37 0.38 0.38 0.39 0.38 0.37 0.36 0.33 0.32 0.32 0.30 0.29 0.28 0.26 0.26 0.25 0.24 0.23 0.22 0.22 0.23 0.23 0.23 0.24 0.23 0.23 0.21 0.20 0.20 0.20 0.21 0.21 0.22 0.22 0.22 0.19 0.19 0.19 0.20 0.21 0.23 0.25 0.27 0.30 0.33 0.36 0.39 0.40 0.41 0.41 0.42 0.42 0.42 0.42 0.43 0.43 0.43 0.43 0.44 0.45 0.46 0.47 0.47 0.48 0.49 0.50 0.52 0.54 0.57 0.59 0.62 0.67 0.73 0.79 0.87 0.95 1.01 1.05 1.07 1.08 1.07 1.09
0.33 0.34 0.35 0.36 0.38 0.39 0.39 0.39 0.38 0.36 0.34 0.33 0.31 0.30 0.29 0.28 0.27 0.26 0.25 0.24 0.23 0.23 0.23 0.23 0.22 0.22 0.22 0.22 0.22 0.20 0.20 0.20 0.19 0.19 0.19 0.20 0.20 0.21 0.20 0.20 0.20 0.20 0.20 0.20 0.21 0.22 0.22 0.25 0.29 0.33 0.38 0.40 0.41 0.42 0.43 0.43 0.44 0.45 0.45 0.46 0.46 0.46 0.46 0.46 0.47 0.48 0.48 0.49 0.51 0.52 0.53 0.53 0.56 0.59 0.60 0.64 0.72 0.80 0.86 0.93 0.98 1.01 1.02 1.03 1.05
0.34 0.35 0.36 0.37 0.38 0.39 0.39 0.38 0.37 0.35 0.33 0.32 0.31 0.30 0.29 0.27 0.26 0.26 0.25 0.24 0.23 0.23 0.22 0.22 0.22 0.20 0.19 0.20 0.22 0.20 0.20 0.20 0.19 0.18 0.18 0.19 0.19 0.19 0.20 0.20 0.20 0.20 0.20 0.21 0.21 0.21 0.20 0.21 0.21 0.23 0.28 0.33 0.37 0.40 0.42 0.44 0.45 0.45 0.46 0.46 0.47 0.48 0.48 0.49 0.49 0.49 0.50 0.50 0.50 0.53 0.55 0.55 0.56 0.57 0.59 0.61 0.66 0.73 0.80 0.86 0.91 0.95 0.98 1.00 1.01
0.35 0.36 0.37 0.37 0.38 0.38 0.38 0.37 0.36 0.33 0.32 0.31 0.30 0.29 0.28 0.27 0.26 0.25 0.25 0.24 0.23 0.23 0.23 0.22 0.21 0.20 0.20 0.21 0.21 0.21 0.19 0.18 0.18 0.17 0.18 0.19 0.20 0.20 0.20 0.20 0.20 0.20 0.21 0.21 0.21 0.21 0.21 0.21 0.21 0.20 0.21 0.23 0.27 0.32 0.37 0.40 0.43 0.44 0.45 0.46 0.46 0.47 0.48 0.50 0.50 0.51 0.51 0.51 0.52 0.53 0.55 0.57 0.58 0.58 0.59 0.61 0.65 0.71 0.77 0.82 0.87 0.91 0.93 0.95 0.97
0.35 0.36 0.37 0.38 0.38 0.38 0.37 0.36 0.34 0.32 0.31 0.30 0.30 0.29 0.28 0.27 0.26 0.25 0.25 0.24 0.23 0.23 0.22 0.21 0.20 0.20 0.21 0.21 0.20 0.20 0.17 0.17 0.17 0.17 0.17 0.18 0.18 0.19 0.19 0.19 0.19 0.19 0.19 0.20 0.20 0.20 0.20 0.21 0.21 0.20 0.20 0.20 0.20 0.21 0.26 0.30 0.34 0.38 0.42 0.44 0.45 0.46 0.47 0.48 0.49 0.51 0.52 0.53 0.53 0.55 0.57 0.59 0.60 0.61 0.61 0.62 0.64 0.69 0.74 0.79 0.84 0.88 0.91 0.93 0.96
0.35 0.36 0.37 0.37 0.37 0.37 0.36 0.35 0.34 0.32 0.31 0.31 0.30 0.29 0.27 0.27 0.26 0.26 0.25 0.24 0.22 0.22 0.21 0.21 0.20 0.20 0.21 0.20 0.20 0.19 0.17 0.16 0.16 0.16 0.16 0.16 0.17 0.17 0.17 0.17 0.17 0.17 0.18 0.18 0.19 0.19 0.19 0.20 0.20 0.20 0.20 0.20 0.20 0.19 0.20 0.22 0.24 0.28 0.32 0.37 0.42 0.44 0.46 0.47 0.48 0.50 0.52 0.53 0.54 0.56 0.58 0.60 0.62 0.62 0.61 0.62 0.65 0.68 0.74 0.78 0.81 0.83 0.86 0.89 0.92
0.36 0.36 0.36 0.36 0.37 0.36 0.35 0.34 0.33 0.33 0.32 0.31 0.29 0.28 0.27 0.26 0.26 0.25 0.24 0.23 0.22 0.21 0.20 0.19 0.19 0.19 0.19 0.19 0.18 0.18 0.16 0.16 0.16 0.15 0.15 0.15 0.15 0.15 0.15 0.16 0.16 0.16 0.16 0.17 0.17 0.17 0.18 0.18 0.19 0.19 0.19 0.19 0.20 0.19 0.19 0.19 0.20 0.21 0.24 0.28 0.33 0.38 0.42 0.45 0.47 0.48 0.50 0.53 0.55 0.56 0.58 0.61 0.63 0.64 0.64 0.63 0.64 0.68 0.73 0.77 0.78 0.80 0.81 0.84 0.88
0.37 0.37 0.37 0.36 0.36 0.35 0.34 0.33 0.33 0.32 0.31 0.29 0.29 0.28 0.27 0.26 0.25 0.24 0.23 0.22 0.21 0.20 0.19 0.18 0.18 0.18 0.17 0.17 0.17 0.17 0.16 0.15 0.14 0.14 0.14 0.14 0.14 0.14 0.15 0.15 0.15 0.16 0.17 0.17 0.17 0.17 0.17 0.17 0.17 0.17 0.18 0.18 0.19 0.19 0.19 0.18 0.19 0.20 0.21 0.22 0.24 0.28 0.35 0.40 0.44 0.46 0.49 0.51 0.53 0.55 0.58 0.60 0.63 0.66 0.66 0.64 0.60 0.62 0.67 0.73 0.77 0.77 0.78 0.80 0.84
0.38 0.38 0.37 0.37 0.36 0.35 0.35 0.33 0.32 0.31 0.30 0.29 0.28 0.27 0.26 0.25 0.24 0.23 0.22 0.21 0.20 0.20 0.19 0.18 0.18 0.17 0.17 0.17 0.17 0.16 0.15 0.15 0.14 0.14 0.14 0.14 0.14 0.14 0.15 0.15 0.16 0.16 0.16 0.16 0.17 0.17 0.17 0.17 0.16 0.17 0.17 0.17 0.18 0.19 0.19 0.19 0.18 0.19 0.20 0.20 0.21 0.22 0.26 0.32 0.38 0.42 0.45 0.48 0.51 0.53 0.56 0.59 0.61 0.63 0.66 0.67 0.65 0.63 0.63 0.68 0.71 0.74 0.76 0.77 0.80
0.38 0.38 0.37 0.36 0.35 0.34 0.33 0.33 0.31 0.30 0.29 0.28 0.27 0.26 0.25 0.24 0.23 0.22 0.22 0.20 0.20 0.19 0.18 0.18 0.18 0.17 0.17 0.16 0.16 0.15 0.15 0.15 0.15 0.15 0.14 0.14 0.14 0.15 0.15 0.15 0.15 0.16 0.16 0.16 0.17 0.17 0.17 0.17 0.16 0.16 0.16 0.17 0.17 0.18 0.18 0.18 0.18 0.18 0.18 0.19 0.20 0.20 0.21 0.24 0.30 0.37 0.41 0.45 0.48 0.51 0.54 0.57 0.60 0.62 0.63 0.64 0.65 0.68 0.67 0.64 0.66 0.69 0.71 0.74 0.78
0.38 0.38 0.37 0.36 0.35 0.34 0.32 0.31 0.31 0.30 0.28 0.27 0.26 0.25 0.24 0.23 0.23 0.22 0.21 0.20 0.19 0.19 0.18 0.18 0.18 0.17 0.17 0.16 0.16 0.16 0.16 0.15 0.15 0.15 0.15 0.15 0.15 0.15 0.16 0.16 0.16 0.16 0.16 0.16 0.16 0.16 0.17 0.17 0.17 0.16 0.16 0.16 0.17 0.17 0.17 0.17 0.17 0.17 0.17 0.18 0.19 0.21 0.22 0.22 0.25 0.30 0.35 0.39 0.43 0.47 0.51 0.54 0.58 0.60 0.62 0.64 0.65 0.64 0.64 0.64 0.63 0.64 0.66 0.69 0.74
0.39 0.38 0.37 0.36 0.34 0.33 0.32 0.31 0.30 0.29 0.28 0.28 0.26 0.25 0.23 0.23 0.22 0.21 0.21 0.20 0.19 0.19 0.18 0.18 0.17 0.17 0.17 0.16 0.16 0.16 0.16 0.16 0.15 0.15 0.15 0.15 0.15 0.15 0.16 0.16 0.16 0.16 0.16 0.16 0.16 0.16 0.17 0.17 0.17 0.17 0.16 0.16 0.16 0.17 0.17 0.17 0.16 0.16 0.17 0.17 0.17 0.19 0.20 0.21 0.22 0.24 0.28 0.34 0.39 0.42 0.46 0.50 0.54 0.57 0.60 0.62 0.64 0.64 0.63 0.61 0.61 0.62 0.63 0.65 0.69
0.40 0.39 0.38 0.36 0.34 0.33 0.32 0.31 0.30 0.29 0.28 0.27 0.25 0.24 0.23 0.22 0.21 0.20 0.20 0.19 0.19 0.18 0.18 0.18 0.17 0.17 0.17 0.17 0.17 0.17 0.17 0.16 0.16 0.16 0.16 0.16 0.16 0.16 0.16 0.16 0.16 0.16 0.16 0.16 0.17 0.17 0.17 0.17 0.17 0.17 0.16 0.16 0.16 0.16 0.16 0.16 0.16 0.16 0.16 0.16 0.16 0.17 0.17 0.19 0.20 0.22 0.24 0.28 0.32 0.37 0.41 0.45 0.49 0.53 0.57 0.60 0.61 0.63 0.62 0.61 0.61 0.61 0.61 0.63 0.66
0.40 0.38 0.37 0.35 0.34 0.33 0.32 0.31 0.30 0.29 0.27 0.26 0.25 0.23 0.22 0.21 0.20 0.20 0.19 0.19 0.19 0.18 0.18 0.17 0.17 0.17 0.17 0.17 0.17 0.17 0.17 0.17 0.16 0.16 0.16 0.16 0.16 0.16 0.16 0.16 0.16 0.16 0.16 0.16 0.17 0.17 0.17 0.17 0.17 0.16 0.16 0.16 0.16 0.16 0.16 0.16 0.16 0.16 0.16 0.16 0.16 0.16 0.16 0.17 0.18 0.19 0.21 0.23 0.26 0.30 0.35 0.39 0.43 0.47 0.51 0.55 0.59 0.61 0.62 0.63 0.62 0.60 0.60 0.61 0.64
0.40 0.39 0.37 0.35 0.34 0.33 0.32 0.31 0.30 0.29 0.28 0.26 0.24 0.22 0.21 0.20 0.19 0.19 0.19 0.19 0.18 0.18 0.18 0.17 0.17 0.17 0.17 0.17 0.17 0.17 0.17 0.16 0.16 0.16 0.16 0.16 0.16 0.16 0.16 0.16 0.16 0.17 0.17 0.17 0.17 0.17 0.17 0.17 0.17 0.16 0.16 0.16 0.16 0.16 0.16 0.16 0.16 0.16 0.16 0.16 0.16 0.16 0.16 0.16 0.16 0.17 0.18 0.20 0.22 0.25 0.29 0.33 0.37 0.40 0.44 0.48 0.52 0.56 0.59 0.61 0.62 0.62 0.60 0.61 0.63
0.40 0.38 0.36 0.35 0.33 0.32 0.31 0.30 0.29 0.28 0.27 0.25 0.23 0.21 0.20 0.19 0.19 0.19 0.18 0.18 0.18 0.17 0.17 0.17 0.18 0.17 0.18 0.18 0.18 0.18 0.17 0.17 0.17 0.17 0.17 0.16 0.16 0.16 0.16 0.16 0.16 0.16 0.17 0.17 0.17 0.17 0.17 0.16 0.16 0.16 0.16 0.16 0.16 0.16 0.16 0.16 0.16 0.16 0.16 0.16 0.16 0.16 0.16 0.16 0.15 0.15 0.16 0.18 0.19 0.21 0.23 0.26 0.30 0.34 0.37 0.41 0.45 0.48 0.52 0.57 0.60 0.61 0.61 0.60 0.61
Wind_Speed
11 10 10 11 11 12 12 13 13 14 15 16 17 18 19 21 23 25 27 27 28 28 28 29 29 30 30 31 31 31 31 31 32 32 32 33 33 34 35 36 36 36 35 35 35 35 35 34 33 32 31 30 31 30 30 29 29 28 28 27 26 26 25 25 24 23 22 22 22 22 22 22 22 21 21 20 19 19 19 18 17 17 17 17 16
12 12 12 12 13 14 14 15 15 16 17 17 18 18 19 20 22 23 25 26 27 28 28 29 29 29 29 30 30 30 30 31 31 30 31 32 32 33 35 36 36 37 36 36 36 36 36 36 35 34 33 32 32 32 31 31 30 30 30 29 28 27 27 26 26 25 24 23 23 23 23 23 23 23 22 21 20 20 20 19 19 18 18 18 17
13 13 13 13 14 15 15 16 17 18 18 19 19 19 19 20 22 23 24 25 26 27 27 28 28 29 29 29 30 30 30 30 30 30 30 30 31 31 33 34 36 37 37 37 37 37 37 37 37 36 35 35 34 34 33 32 32 32 32 31 30 29 28 28 27 26 26 25 24 24 23 23 24 24 23 23 22 21 21 20 20 19 19 19 19
13 13 13 14 14 15 16 17 18 19 19 19 20 21 20 20 21 23 24 24 25 26 26 27 28 28 29 29 29 30 29 29 30 30 29 29 29 30 31 32 34 35 37 38 38 38 38 39 39 38 38 37 37 36 35 34 33 33 33 33 32 31 30 30 29 28 27 26 25 25 24 24 24 24 24 24 23 23 22 22 21 21 21 20 20
13 13 13 14 15 15 16 17 18 19 19 19 20 21 22 22 22 23 24 24 25 25 25 26 27 28 28 29 29 29 29 29 29 29 29 28 28 29 30 31 33 34 35 36 37 38 38 39 39 39 39 39 39 38 37 37 36 35 35 34 34 33 32 32 31 31 30 29 27 26 26 25 25 25 25 25 24 24 24 23 23 22 22 22 21
13 14 14 14 15 16 16 17 18 18 18 19 19 20 21 22 22 22 24 25 25 25 25 26 27 27 28 28 28 28 28 28 29 29 29 29 29 29 30 31 32 33 34 35 35 36 37 37 38 38 39 40 40 40 39 39 39 38 37 36 35 35 34 33 33 33 32 31 30 29 28 27 27 26 26 26 26 25 25 25 25 24 23 23 23
14 14 14 15 15 16 17 17 17 18 18 18 19 19 20 20 21 21 23 25 25 25 25 26 26 27 27 27 28 28 28 28 29 29 29 29 30 30 31 31 31 32 33 34 34 34 35 35 36 37 38 39 40 40 40 40 40 40 39 37 36 36 36 35 34 34 34 33 32 31 30 29 29 28 27 27 27 26 26 26 26 26 25 24 24
14 14 14 15 15 16 17 17 17 17 17 17 17 18 18 18 19 20 22 24 25 25 25 26 26 27 27 27 27 27 28 28 29 29 30 30 30 31 31 32 32 32 32 33 34 34 34 34 35 35 36 38 39 39 40 41 41 41 40 39 38 38 37 37 36 35 35 35 34 33 32 31 31 30 29 28 28 28 27 27 27 27 26 26 26
14 14 14 14 15 15 16 16 16 15 15 15 15 15 15 16 17 19 21 23 24 25 25 26 26 27 27 27 27 27 27 28 29 29 30 30 31 31 31 32 32 32 32 33 34 34 35 34 34 35 36 37 38 39 40 41 42 41 41 40 39 38 38 38 37 36 36 36 35 34 34 33 32 32 32 31 30 30 29 28 28 28 28 28 27
14 14 13 13 14 14 15 15 14 14 14 14 14 13 13 14 15 17 19 21 22 24 24 25 26 27 27 27 27 28 28 29 29 29 30 30 31 31 31 32 32 32 32 33 33 34 35 35 35 35 36 36 37 38 40 42 43 43 42 41 40 39 39 38 38 37 37 36 36 36 35 35 34 34 34 33 33 32 31 30 30 30 29 29 28
14 14 14 13 13 14 14 14 13 13 13 12 13 12 12 12 13 14 16 18 20 22 23 23 24 25 26 27 28 28 29 29 30 30 30 30 31 32 32 32 32 33 33 33 32 33 34 34 35 36 36 37 37 38 39 40 41 42 43 43 42 41 41 40 40 39 39 38 37 37 37 37 36 35 35 35 34 34 33 33 32 31 30 30 29
14 14 14 14 13 13 13 13 13 13 12 12 12 12 12 11 12 13 14 15 17 18 20 21 23 24 25 26 27 28 29 29 30 30 31 31 31 32 33 33 33 33 33 33 33 33 33 33 34 35 35 36 36 37 38 39 40 41 42 43 44 45 44 44 43 42 41 41 40 39 38 38 38 38 37 36 35 35 35 35 34 34 33 32 31
14 14 14 14 13 13 13 13 13 13 12 12 12 12 12 11 11 11 12 13 14 15 17 19 21 22 23 25 26 27 28 29 29 30 31 32 32 33 33 33 34 34 34 34 34 34 34 34 35 35 35 36 36 36 37 38 39 40 41 43 44 46 46 46 46 45 44 44 43 42 40 39 39 39 38 38 38 37 37 36 36 36 35 35 33
14 14 13 13 13 13 13 13 12 13 12 12 12 12 11 11 10 10 11 12 13 14 15 16 18 20 21 23 24 25 26 27 28 29 31 32 33 33 33 34 34 34 34 34 34 34 35 35 35 35 35 35 36 36 36 37 38 39 40 42 43 44 45 46 46 46 46 45 45 45 43 42 42 41 40 40 40 40 39 38 38 38 38 37 36
14 13 13 13 13 13 13 13 12 12 12 12 12 12 12 11 11 11 11 11 12 13 14 15 16 17 19 21 22 24 25 26 27 28 29 31 32 33 34 34 35 35 35 35 35 35 35 36 36 36 36 36 35 36 36 37 38 39 40 41 42 43 44 45 45 46 46 47 47 47 45 44 44 42 41 41 42 42 41 41 40 40 39 38 36
14 13 13 14 13 13 13 13 12 12 12 12 12 12 12 12 11 11 11 12 12 13 13 15 16 17 18 19 20 22 24 25 26 27 28 30 31 32 33 34 34 35 36 36 36 36 36 36 37 37 37 37 36 36 36 37 37 39 40 41 41 42 43 44 45 46 46 47 47 48 47 46 45 44 43 42 43 43 42 42 42 41 40 39 37
13 13 14 14 14 14 13 13 13 12 12 12 12 12 12 12 12 12 12 12 12 13 13 14 15 16 17 18 20 21 23 24 25 26 27 29 30 31 32 33 34 35 35 36 37 37 37 37 37 37 38 37 37 36 36 37 37 38 39 40 41 42 43 43 44 45 46 47 47 48 48 48 47 46 45 43 43 43 43 43 43 42 42 41 40
13 13 13 13 13 13 13 13 13 13 13 13 13 13 12 12 12 12 12 12 12 13 13 14 15 15 16 18 19 20 22 23 24 26 27 28 29 31 32 33 34 35 35 36 37 38 38 38 38 38 38 38 38 37 37 38 38 38 38 39 40 41 42 42 42 43 44 45 46 47 48 49 49 48 47 46 45 44 44 45 44 43 43 43 42
12 12 13 13 13 13 13 13 13 13 13 13 13 13 13 13 13 13 12 12 12 13 13 14 15 16 16 17 18 19 20 22 23 24 25 27 28 29 31 32 33 34 35 36 37 38 39 40 40 40 40 40 39 39 39 39 39 39 39 39 40 40 40 41 42 42 42 44 45 45 46 48 49 49 49 48 47 46 46 46 44 44 44 44 43
12 12 12 13 13 13 13 13 13 13 13 13 13 14 13 13 14 14 13 13 13 13 13 14 14 15 16 17 18 19 20 21 22 23 24 25 26 28 30 31 32 34 34 35 36 37 38 39 41 41 42 42 42 42 41 41 41 41 40 40 41 40 40 40 41 42 42 43 44 45 45 46 47 49 49 49 48 48 48 47 46 46 46 45 45
12 12 12 12 13 13 13 13 13 13 14 14 14 14 14 14 14 15 15 14 14 14 14 15 15 15 16 17 18 19 20 21 22 22 23 24 25 27 28 30 32 33 34 35 36 36 37 38 40 41 43 44 44 44 44 44 44 44 43 43 42 42 41 41 42 42 42 42 43 44 45 45 46 47 48 49 49 49 49 49 48 48 47 47 46
12 12 12 13 13 13 13 14 14 14 14 14 15 15 15 15 15 15 15 15 15 16 16 16 16 16 17 17 18 18 19 20 21 22 23 24 24 25 27 29 30 32 34 35 36 37 37 38 39 40 42 43 44 45 46 46 47 47 46 46 46 45 44 44 44 44 44 44 44 44 45 45 46 46 47 48 49 49 49 49 49 48 48 48 47
12 12 13 13 13 13 14 14 15 15 15 15 15 16 16 16 16 16 16 17 17 17 17 17 17 18 18 19 19 19 20 20 21 22 23 23 24 25 26 27 29 31 33 34 36 37 38 39 40 41 41 42 43 44 45 46 47 48 48 48 48 48 47 46 45 45 45 46 46 46 46 46 46 47 46 46 47 47 48 48 48 48 48 48 48
12 13 13 14 14 14 15 15 15 16 16 16 16 17 17 17 17 17 17 18 18 18 18 18 19 19 19 20 20 20 21 21 21 22 23 24 24 25 26 27 28 29 31 33 35 37 39 40 40 41 42 42 43 43 44 45 46 47 48 49 49 49 48 47 47 46 46 46 46 47 47 47 47 47 46 46 46 46 47 48 49 49 49 48 48
12 13 13 14 14 15 15 16 16 16 17 17 17 18 18 18 18 19 19 19 19 19 19 20 20 20 20 20 21 21 21 21 22 23 23 24 25 25 26 27 28 29 30 31 33 35 38 40 41 41 41 42 42 42 43 43 44 46 46 47 48 49 49 49 48 48 47 47 46 46 47 47 47 47 46 46 46 46 47 48 49 49 49 49 48
12 12 13 14 15 15 16 16 17 17 18 18 18 19 19 20 20 20 20 20 20 20 20 21 21 21 21 21 21 22 22 22 22 23 23 24 25 26 26 27 28 29 30 31 32 34 35 37 39 39 40 40 41 42 42 43 43 44 45 46 46 47 48 49 49 49 49 48 47 47 47 47 47 47 46 46 46 45 46 47 48 49 49 49 48
12 13 13 14 15 16 17 17 18 18 19 19 20 20 20 21 21 21 21 21 22 22 22 22 22 22 22 22 22 22 22 22 23 23 24 24 24 25 26 27 28 29 29 30 31 32 33 34 36 37 38 38 39 40 41 41 42 43 44 44 45 46 47 48 49 49 49 49 49 48 47 47 47 47 46 46 47 46 45 45 47 48 49 49 49
13 13 14 15 16 17 17 18 19 19 20 21 21 22 22 22 22 22 22 22 23 23 23 23 23 23 23 23 23 23 23 23 23 24 25 25 25 25 25 26 26 27 28 29 29 30 31 32 33 34 35 36 37 38 39 40 40 41 42 43 43 44 46 47 48 49 49 49 49 49 48 47 47 47 47 47 47 47 46 45 46 47 48 48 49
13 14 15 16 17 17 18 19 20 20 21 22 22 23 23 23 23 23 24 24 24 24 24 24 24 24 24 24 24 24 24 25 25 26 26 26 26 25 25 25 26 26 27 27 28 28 28 28 29 31 32 34 35 36 37 38 39 40 41 42 42 43 44 45 47 47 48 48 49 49 48 48 48 48 47 47 47 47 47 46 46 46 47 48 49
14 15 16 17 18 19 19 20 21 21 22 23 23 23 24 24 24 25 25 26 26 25 25 25 25 25 25 25 25 25 25 26 26 27 27 26 26 26 25 25 25 26 26 26 26 26 26 26 27 27 29 31 33 34 35 36 38 39 39 40 41 42 43 44 45 46 47 47 48 49 49 48 48 48 47 47 47 46 47 47 47 46 47 48 49
15 16 17 18 19 20 20 21 22 22 23 24 24 25 25 26 26 27 27 27 27 27 27 27 27 27 27 26 26 26 26 27 27 27 27 27 27 26 26 26 25 25 25 25 25 25 25 25 25 26 27 28 30 32 33 34 36 37 38 39 40 41 42 43 44 45 46 47 47 48 48 49 49 48 48 48 47 46 46 47 47 47 47 48 49
16 17 18 19 20 20 21 22 22 23 24 25 25 26 26 27 28 28 29 29 29 29 29 29 29 28 28 28 28 28 28 27 27 27 27 27 26 26 26 26 25 25 25 24 24 24 24 25 25 25 26 26 28 30 31 32 34 35 36 38 39 40 41 42 43 44 45 46 46 47 48 48 49 49 49 48 48 48 47 47 47 48 48 48 49
17 18 19 20 20 21 22 22 23 24 25 26 26 27 28 28 29 29 30 30 31 31 30 30 30 29 29 29 29 28 28 28 28 27 27 26 26 26 26 25 25 25 25 24 24 24 24 24 24 25 25 25 26 28 29 31 32 33 35 36 37 39 40 41 42 43 44 45 46 46 47 47 48 50 50 50 49 48 48 48 48 48 48 48 48
18 19 20 20 21 22 23 23 24 25 26 27 27 28 28 29 29 30 31 31 31 31 31 31 30 29 29 29 29 28 28 28 27 27 27 26 26 26 25 25 25 25 24 24 24 24 24 24 24 25 24 25 25 26 27 28 30 32 33 34 35 37 38 39 40 42 43 44 44 45 46 46 47 48 49 50 49 49 49 48 47 47 48 48 48
19 20 21 21 22 23 24 24 25 26 27 28 28 29 29 30 30 31 31 31 31 31 30 29 29 28 27 27 27 28 27 27 27 26 26 26 26 26 25 25 25 25 24 24 24 24 24 24 25 25 25 25 25 25 25 26 27 29 30 32 33 35 36 37 38 39 41 42 43 44 45 45 46 46 47 47 48 49 49 49 48 48 47 48 48
19 20 21 22 23 24 24 25 26 27 28 29 29 30 30 31 31 31 31 31 31 30 28 27 27 26 26 26 26 26 26 26 26 25 25 25 25 25 25 24 25 25 25 25 25 25 24 25 25 25 25 25 25 25 25 25 26 26 27 28 30 31 33 34 36 37 38 40 41 42 43 44 45 45 46 46 47 47 48 49 49 48 48 48 47
20 21 22 23 24 25 25 26 27 28 29 29 30 30 30 31 31 31 31 31 30 28 27 26 26 26 26 25 25 25 25 25 24 24 24 24 24 24 24 25 25 25 25 25 25 25 25 25 25 25 25 25 25 25 25 25 25 25 26 27 27 28 29 31 32 34 35 37 38 40 41 42 43 44 45 46 46 46 46 47 48 48 49 48 47
21 22 23 24 24 25 26 26 27 28 29 29 30 30 31 31 31 31 30 30 29 28 26 26 26 26 25 25 25 25 24 24 23 23 23 23 24 24 24 25 25 25 25 25 25 25 25 25 25 25 25 25 26 26 25 25 25 25 25 26 26 27 28 28 29 30 31 33 35 37 38 40 41 42 43 44 45 45 45 46 47 47 48 48 48
22 23 24 24 25 25 26 27 28 28 29 30 30 31 31 31 31 30 30 29 28 27 26 26 26 25 25 25 25 24 24 24 23 23 23 23 23 23 24 24 25 25 25 25 25 25 25 25 25 25 25 25 26 26 26 26 26 26 25 25 25 26 26 27 27 28 28 30 31 33 35 36 38 39 40 42 43 44 44 44 45 46 47 48 48
23 24 24 25 25 26 26 27 28 28 29 30 30 31 31 31 31 30 29 29 28 27 26 26 26 25 25 25 24 24 23 23 23 23 22 22 22 22 23 23 24 24 25 25 25 25 25 25 25 25 25 25 25 26 25 25 25 25 25 25 25 25 25 25 26 27 27 28 29 30 32 33 35 36 38 39 40 41 42 43 43 44 45 47 47
23 24 25 25 26 26 27 27 28 29 30 30 31 31 31 31 31 30 29 28 27 27 26 26 26 25 25 24 24 23 23 22 22 22 22 22 22 22 22 22 23 23 24 24 24 24 25 25 25 25 25 25 25 25 25 25 24 24 25 25 25 25 25 25 24 25 26 27 28 29 30 31 32 33 35 36 37 38 40 41 41 42 43 44 45
24 25 25 26 26 26 27 27 28 29 30 30 31 31 31 31 30 30 29 28 27 27 26 26 26 25 24 24 24 23 22 22 22 22 21 21 21 21 21 22 22 22 22 23 23 24 24 24 25 25 25 25 25 25 25 25 24 24 24 24 24 25 25 25 25 24 24 25 26 27 28 29 30 31 33 35 36 36 37 37 38 39 39 40 41
25 25 26 26 26 26 27 28 29 30 30 31 31 31 31 31 30 29 28 28 27 27 26 26 25 25 24 23 23 23 22 22 22 22 21 21 21 21 21 21 22 22 22 22 23 23 24 24 24 24 25 25 25 25 25 25 24 24 24 24 24 24 24 25 25 25 25 24 25 26 27 28 29 29 30 32 34 36 36 35 35 36 36 37 37
25 25 25 26 26 26 27 28 29 30 30 31 31 31 31 31 30 29 28 28 27 27 26 26 25 24 23 23 23 22 22 22 22 22 22 22 22 22 21 22 22 22 22 23 23 23 23 23 24 24 24 25 25 25 25 24 24 24 25 24 24 24 24 24 24 25 25 25 25 25 25 27 28 29 28 29 30 32 34 34 34 34 34 34 34
25 25 25 25 26 27 28 29 30 30 31 31 31 32 31 31 30 29 28 27 27 26 26 25 24 23 23 23 22 22 22 22 22 22 22 22 22 22 22 22 23 23 23 23 23 24 24 24 24 24 24 24 25 25 25 25 24 24 25 25 24 24 24 24 25 25 25 25 25 25 25 25 26 27 28 29 29 30 31 32 33 33 32 32 32
25 25 25 26 26 27 28 29 30 30 31 31 32 32 31 30 30 29 28 27 26 26 25 24 24 23 23 22 22 22 22 22 22 23 23 23 23 24 24 24 24 24 24 24 24 24 24 24 24 24 24 24 25 25 25 25 24 24 24 25 25 25 25 25 25 25 24 24 24 24 24 24 25 25 26 27 28 29 29 30 30 31 31 31 31
26 26 26 26 27 28 29 29 30 31 31 32 32 32 31 30 29 28 27 26 26 25 25 24 24 23 23 23 23 23 23 23 23 23 24 24 24 24 25 25 25 25 25 25 25 25 24 24 24 25 25 25 25 25 25 25 25 25 24 24 25 25 26 26 26 25 24 24 24 23 23 23 23 24 24 25 25 26 27 28 29 29 29 30 30
26 27 27 27 28 28 29 29 30 31 31 32 32 31 31 30 29 28 27 26 25 25 25 24 24 24 23 23 23 24 24 24 24 24 25 25 25 25 26 26 26 26 26 26 25 25 25 25 25 25 25 25 25 25 25 25 25 25 25 24 25 26 26 26 25 25 24 24 23 23 22 22 22 22 23 23 24 24 24 25 27 28 28 28 29
27 27 27 28 28 29 29 30 30 31 31 32 32 31 30 29 28 27 26 26 25 25 25 25 24 24 24 24 25 25 25 25 25 26 26 26 26 26 26 26 27 26 26 26 26 26 26 26 26 26 26 26 26 26 25 25 25 25 25 25 25 26 26 26 25 25 24 23 23 22 22 23 22 22 22 22 22 23 23 23 24 25 26 26 26
27 28 28 28 28 29 30 30 30 31 31 32 32 31 30 29 28 27 26 26 25 25 25 25 25 25 25 25 26 26 26 26 26 27 27 27 27 27 27 27 27 27 27 27 27 27 27 27 27 26 26 26 26 26 26 25 25 25 25 26 26 26 26 25 25 24 24 23 22 22 22 22 22 22 22 21 21 22 23 23 22 23 24 25 25
28 28 28 28 29 29 30 30 31 31 31 32 31 30 29 28 27 26 26 26 26 25 26 26 26 26 26 26 26 27 27 27 27 27 27 28 28 28 28 27 27 27 27 27 27 27 27 27 27 27 26 26 26 26 25 25 26 26 26 26 26 26 25 25 25 24 24 23 22 22 22 22 22 21 21 21 21 21 22 23 22 22 23 24 25
Wind_Direction
305 303 300 297 295 293 292 290 288 286 285 283 280 273 264 257 253 250 247 245 244 243 243 243 242 242 241 241 241 242 242 243 244 244 244 244 243 242 240 238 237 237 239 239 239 240 239 240 241 242 243 245 246 247 246 246 247 247 247 248 248 249 249 249 252 255 254 252 252 251 251 252 254 256 258 261 262 262 262 264 266 266 265 262 260
302 302 301 300 299 296 294 292 291 289 287 284 281 277 270 261 255 252 248 246 244 243 242 243 242 242 241 240 240 241 241 241 242 243 244 244 243 242 240 238 237 238 239 240 241 241 241 241 242 243 244 245 246 247 247 246 246 246 246 246 247 248 249 248 250 254 255 253 252 252 252 252 254 255 256 259 261 262 262 263 264 265 264 263 261
301 301 301 302 301 300 296 294 292 291 289 285 281 278 274 266 258 253 250 247 244 242 242 242 242 242 242 241 240 241 241 241 241 242 243 243 242 241 239 238 238 239 240 241 242 243 243 242 243 243 244 245 245 246 247 247 246 246 246 246 247 248 249 249 249 252 254 253 252 252 253 252 253 255 256 258 260 260 261 262 263 264 264 263 261
301 301 302 302 303 302 300 298 295 294 291 286 281 277 273 270 262 255 251 248 245 242 241 242 242 242 242 242 242 242 243 242 242 242 243 243 242 241 239 239 240 241 241 242 243 244 244 244 244 244 244 245 245 246 247 247 246 246 246 247 247 248 249 249 249 251 253 254 252 252 253 253 254 255 256 257 258 259 260 260 261 263 264 263 262
303 303 303 304 304 305 303 301 300 297 294 289 283 277 272 270 266 257 251 248 245 243 241 241 242 242 243 243 243 243 243 243 243 244 244 244 244 242 242 242 242 243 243 244 245 245 246 246 245 245 245 245 245 245 246 247 247 247 247 247 247 248 248 248 249 250 252 253 253 252 253 254 255 256 255 256 257 258 258 258 259 261 263 264 264
306 305 304 304 306 306 306 304 303 301 298 292 287 282 274 269 265 259 251 247 245 243 241 240 240 242 243 244 243 243 243 243 243 244 244 245 245 244 243 243 244 244 245 245 246 246 246 247 247 246 246 245 245 245 245 246 247 247 247 247 247 248 248 248 249 250 250 252 253 253 253 253 254 255 256 256 256 257 257 257 258 259 261 262 264
311 308 306 306 307 307 308 307 305 303 301 295 290 287 280 269 262 258 252 248 246 244 242 240 240 240 242 243 243 243 243 243 244 244 245 245 245 245 244 244 244 245 246 246 246 246 246 247 247 247 246 245 244 244 245 246 246 246 246 247 247 247 247 248 249 249 250 251 252 252 253 253 253 254 255 256 256 257 257 256 257 257 258 260 262
317 313 310 310 311 311 311 310 308 306 303 300 294 290 282 270 260 255 252 249 246 245 243 241 240 240 240 242 242 243 243 244 244 245 246 247 247 247 246 246 246 246 246 246 246 246 247 247 248 248 247 246 245 245 244 245 245 245 245 246 247 246 246 248 249 249 250 250 251 252 252 252 252 253 254 254 254 255 256 256 256 257 258 259 260
322 318 316 316 317 318 317 315 313 312 310 307 302 295 284 272 262 256 252 249 247 245 243 242 241 241 241 241 242 243 243 244 246 247 248 248 249 249 248 248 248 248 248 248 247 247 247 248 248 249 249 248 248 247 246 245 245 244 244 245 246 246 246 247 249 249 250 251 251 251 251 251 251 252 252 252 252 254 256 256 256 257 258 259 260
330 324 320 320 321 323 324 324 322 319 317 315 311 305 292 277 266 261 256 251 249 247 245 243 242 242 242 242 242 243 244 246 248 250 250 250 250 250 250 250 249 249 250 250 250 249 249 249 249 249 249 249 249 249 247 246 246 245 244 243 244 245 246 247 248 249 250 251 251 251 251 251 251 251 252 252 252 252 254 255 256 258 259 259 260
340 334 328 324 323 325 328 329 329 327 324 321 317 312 302 286 274 268 262 256 252 250 249 247 245 244 243 242 242 244 245 248 251 252 253 253 252 252 251 251 250 250 250 251 251 251 251 251 251 251 251 251 250 250 250 249 249 248 246 244 244 245 246 247 248 249 250 251 251 251 251 251 251 252 252 252 252 252 253 254 255 257 258 259 260
343 342 338 333 329 328 329 331 332 330 328 326 323 319 312 300 286 276 269 263 257 254 252 250 248 246 245 245 244 245 247 250 252 253 254 255 254 253 252 252 252 251 251 251 251 252 252 252 252 252 252 252 252 252 252 252 251 249 248 246 246 247 247 248 248 250 250 251 251 251 251 251 252 251 251 252 252 252 253 254 254 255 256 258 259
342 342 343 341 338 335 332 331 331 331 329 328 326 323 320 313 300 287 279 272 265 260 257 254 251 249 248 248 248 248 249 251 253 255 256 256 256 255 253 253 253 253 252 252 252 252 252 252 252 253 253 253 253 253 253 253 252 251 250 248 247 248 249 248 249 250 251 251 251 251 251 251 252 251 252 252 252 252 252 253 254 254 255 256 257
343 342 342 343 343 342 339 337 334 332 331 329 326 324 323 319 311 298 287 281 276 272 267 262 258 256 254 252 252 252 253 254 255 256 257 257 257 256 255 254 254 253 253 253 253 252 253 253 253 254 254 253 253 254 255 254 253 252 251 250 249 249 248 248 248 250 251 251 251 251 251 252 252 252 252 252 251 251 252 253 254 254 255 256 257
344 344 344 343 343 343 343 342 341 338 336 333 330 327 323 319 314 306 296 289 284 280 275 270 266 264 261 259 256 256 257 258 258 258 258 258 258 256 255 255 255 254 254 254 253 253 254 254 254 254 254 254 254 254 255 255 255 254 253 252 251 249 249 248 249 250 251 251 251 251 251 252 252 252 252 252 252 252 253 253 254 255 255 256 257
344 346 347 346 345 344 343 342 341 340 339 338 336 334 329 324 317 310 302 295 290 285 281 276 273 270 268 266 264 261 262 263 262 261 260 260 258 257 256 256 256 255 255 255 255 254 254 255 255 255 255 255 255 256 256 256 255 255 254 253 252 251 250 250 251 251 252 252 252 252 251 251 251 252 252 251 252 253 253 253 253 254 254 255 256
345 346 347 348 347 346 345 343 341 339 338 338 337 336 335 332 327 319 311 303 296 291 286 281 278 275 273 272 271 269 267 268 268 266 265 263 260 258 258 258 258 257 257 256 256 255 255 256 256 256 256 256 256 257 257 256 255 255 255 254 253 252 252 252 252 253 253 253 253 253 252 251 250 251 251 251 251 252 252 252 252 252 253 253 255
346 346 347 347 347 346 346 345 344 341 339 338 336 335 333 332 331 327 322 315 307 299 291 285 282 280 277 276 276 273 272 273 273 272 270 268 264 261 260 259 259 259 259 258 257 256 256 256 257 257 256 256 257 257 257 257 256 255 256 255 254 254 253 253 253 254 253 253 254 254 253 252 251 251 251 250 250 250 251 251 252 252 252 252 254
344 345 345 346 346 346 346 345 345 343 342 340 338 336 334 331 329 327 324 321 317 310 302 294 287 284 281 280 279 277 274 275 276 276 275 273 270 266 263 262 261 261 260 259 258 257 257 256 257 257 256 257 257 257 257 257 257 256 256 256 255 255 254 254 254 254 254 254 254 254 254 253 251 250 251 250 250 250 251 251 252 252 251 252 253
342 343 344 344 345 345 346 346 345 343 342 340 338 336 334 332 330 328 325 322 318 315 311 305 298 292 287 284 283 281 278 277 277 278 278 277 275 271 268 266 265 264 262 261 260 259 258 258 257 257 257 257 257 257 257 257 257 257 256 256 255 255 255 254 254 255 255 255 254 254 255 254 252 250 250 250 250 250 251 251 251 251 251 252 253
340 342 343 343 344 345 345 345 344 343 342 340 338 336 334 332 331 329 326 323 320 317 313 309 305 300 296 292 289 287 285 283 282 281 281 280 278 276 272 270 269 267 265 264 262 261 260 259 259 259 259 258 258 257 257 257 257 256 256 256 256 256 256 255 254 254 255 256 256 255 254 254 253 251 250 250 250 250 250 251 250 251 251 252 253
339 341 341 342 343 344 344 343 342 342 340 339 338 336 334 332 330 328 326 323 321 319 315 311 308 304 301 299 296 293 291 290 288 287 286 285 283 280 276 274 273 270 268 267 265 264 262 261 261 261 261 260 259 258 257 257 256 256 256 256 257 257 256 255 255 254 254 255 256 256 255 254 253 252 251 251 250 250 250 250 250 251 252 252 253
337 338 339 340 341 341 341 341 340 339 339 338 337 336 333 331 329 327 325 322 320 318 315 312 309 306 304 302 300 297 295 294 293 292 291 290 288 286 283 280 277 274 272 270 268 267 265 264 263 262 262 261 261 260 259 258 257 256 256 256 256 256 256 256 255 255 254 254 254 254 254 254 254 253 252 252 252 251 251 250 250 251 252 252 253
334 335 337 338 338 338 338 338 338 338 338 337 336 335 334 331 329 327 325 323 320 318 315 312 310 307 305 303 302 300 297 296 295 295 294 293 291 290 289 286 283 280 277 274 271 269 268 267 266 265 263 262 261 260 259 259 258 257 257 256 255 255 255 255 255 255 255 254 254 253 253 253 253 253 253 253 253 252 251 251 250 251 252 252 252
331 333 334 336 336 336 336 336 336 336 336 336 335 335 334 332 330 328 326 324 322 319 317 314 312 309 306 303 302 300 299 297 296 297 297 295 294 293 292 290 288 286 284 281 278 275 271 268 267 266 265 263 262 261 259 259 258 258 258 257 256 255 255 254 254 254 254 254 254 253 252 252 253 253 253 253 253 253 252 251 251 251 252 252 252
329 331 332 333 334 334 335 335 334 334 334 333 333 332 331 330 329 328 326 325 323 320 318 316 314 311 308 305 303 301 300 298 298 298 298 297 296 296 294 292 291 290 287 286 285 282 277 272 269 267 266 265 264 262 261 260 259 258 258 257 256 255 255 254 254 254 253 253 253 253 253 253 253 254 254 253 253 253 253 252 251 251 251 251 251
328 329 330 331 331 332 332 332 332 331 330 330 330 329 328 327 326 326 325 323 321 320 318 316 314 312 309 306 304 302 300 299 299 299 299 299 298 297 296 295 294 292 290 289 289 287 283 279 273 269 268 267 265 264 263 262 260 259 258 258 256 255 254 254 254 253 253 253 254 254 254 253 253 253 253 253 253 253 253 252 252 251 250 250 250
326 327 328 329 329 329 330 330 329 329 328 328 327 327 326 325 324 324 323 321 320 318 316 314 313 311 308 306 304 303 301 300 300 300 300 299 299 297 297 297 295 294 292 292 290 288 286 282 277 272 269 268 267 266 265 264 263 261 260 259 258 256 255 254 254 253 253 254 254 254 254 253 253 252 252 253 252 252 253 253 253 251 250 249 250
324 325 325 326 326 326 327 327 327 326 326 326 326 326 325 324 323 321 320 320 319 317 315 313 311 309 307 305 303 302 301 300 301 301 300 300 300 299 298 298 297 296 296 294 292 290 289 286 281 275 271 269 269 268 267 266 265 264 263 262 261 259 257 256 255 254 254 254 254 253 253 253 253 252 252 252 252 252 252 252 252 251 250 249 250
321 322 322 323 323 323 324 325 325 325 325 325 325 325 324 323 322 320 318 317 317 316 314 312 310 308 306 304 302 301 299 298 299 300 300 301 300 300 299 299 299 300 300 298 296 294 294 293 290 284 277 272 271 270 269 268 267 266 265 265 263 262 260 258 256 256 255 255 254 254 253 253 253 252 252 252 252 252 252 252 252 251 250 249 250
318 319 320 320 321 321 322 323 324 324 324 324 324 323 323 322 322 320 318 316 315 314 312 310 309 308 306 304 302 300 299 298 299 299 299 299 299 299 299 299 300 301 302 300 298 299 299 298 296 293 287 280 275 272 270 269 268 266 266 265 264 263 262 260 258 257 256 256 255 255 254 253 252 253 252 252 252 252 252 252 252 251 250 250 250
316 317 318 319 320 320 320 321 322 323 323 323 323 323 322 322 321 321 320 318 315 313 311 309 307 305 305 303 301 300 299 299 298 298 297 297 297 297 297 297 298 300 302 301 301 301 302 301 299 298 295 290 284 279 275 272 270 268 266 265 264 263 262 261 260 258 257 256 256 256 255 253 252 252 252 252 252 252 252 251 251 251 251 251 250
314 315 317 318 319 320 320 320 321 322 323 323 323 323 322 322 321 320 320 318 317 314 312 309 306 304 303 303 302 300 298 298 297 296 296 297 296 296 295 295 296 298 300 300 300 300 301 301 301 300 298 295 291 287 281 277 274 272 269 267 265 263 262 261 260 259 258 257 256 256 256 255 254 252 252 252 251 251 251 251 251 251 251 251 251
314 315 316 317 319 320 320 320 321 322 322 322 322 322 323 322 321 320 319 318 317 316 313 311 309 307 304 303 302 301 299 297 296 295 295 296 296 295 294 293 294 295 297 297 297 298 298 299 300 300 299 297 295 292 288 284 279 276 273 271 268 266 263 261 260 259 258 258 257 256 256 255 255 254 253 252 251 251 251 251 251 251 251 251 251
315 315 316 317 318 319 319 320 320 321 322 322 322 322 322 322 321 321 320 319 318 317 316 314 312 311 309 307 305 303 301 299 297 296 295 295 295 294 293 292 292 294 294 295 295 296 297 298 298 299 300 299 297 295 293 290 286 281 278 275 273 270 268 265 262 260 258 258 257 257 256 255 254 254 253 253 252 251 251 250 250 250 251 251 251
315 315 316 317 318 319 319 319 320 321 321 321 321 321 322 322 322 321 320 320 319 318 317 315 314 313 312 311 309 307 305 302 299 297 295 295 295 294 292 292 292 292 293 294 295 295 295 296 297 297 298 300 300 298 296 294 292 288 284 280 277 274 272 269 267 264 261 259 258 257 256 256 255 254 253 253 253 252 251 251 251 250 250 251 251
315 315 316 317 318 318 318 318 319 320 321 321 321 322 322 322 322 321 320 321 321 320 318 316 316 315 314 313 313 311 309 306 303 301 298 297 296 293 292 292 292 292 293 294 295 295 295 295 296 296 297 298 300 300 299 297 295 293 291 287 284 280 277 274 271 268 265 262 260 259 258 257 256 254 253 252 252 252 252 251 251 251 250 250 251
315 316 317 317 317 318 318 318 319 320 321 321 322 322 322 322 322 321 321 321 321 320 318 317 317 316 316 315 315 313 311 309 307 305 303 301 298 295 292 292 292 293 293 294 294 295 295 295 295 296 295 296 298 300 299 299 298 296 294 292 289 286 283 280 277 273 270 267 264 262 260 258 257 255 253 252 252 252 252 251 251 251 250 249 249
315 316 316 317 318 318 318 318 319 320 321 321 322 322 322 322 322 321 321 321 320 319 318 317 317 316 316 315 315 314 314 312 311 309 307 304 301 298 295 294 293 293 293 294 294 294 294 294 295 295 294 295 297 298 298 298 298 298 296 294 292 290 287 284 281 279 276 272 269 266 264 262 259 257 254 252 252 252 253 252 251 251 250 250 249
315 315 316 317 317 318 318 319 319 320 321 321 321 322 322 321 321 320 320 320 319 318 317 317 317 316 315 315 315 315 315 314 313 312 309 307 304 302 300 298 296 295 295 295 294 294 294 294 294 295 295 294 296 297 297 296 297 298 297 295 294 292 290 287 284 282 280 277 274 270 268 266 263 259 256 254 253 253 253 252 252 251 251 251 250
314 314 315 316 316 317 318 319 319 320 321 321 321 321 321 321 320 320 319 318 318 317 316 316 316 315 315 316 317 316 315 314 314 314 312 310 308 306 304 302 300 299 298 297 296 295 295 294 294 295 295 295 296 297 297 296 296 297 298 296 295 294 293 290 287 284 282 280 277 274 271 268 266 262 259 257 256 254 253 252 252 252 252 252 252
314 313 314 315 315 316 317 318 319 320 321 321 321 321 321 320 320 319 318 317 316 316 315 315 315 314 314 315 316 316 315 314 314 314 314 313 311 309 307 305 304 302 301 299 298 297 296 295 295 295 295 295 296 296 297 296 295 296 297 297 296 294 294 293 291 290 287 284 281 277 274 270 267 264 261 259 257 256 254 253 253 252 252 253 253
313 313 314 314 315 316 317 318 319 320 321 321 321 321 321 320 320 319 318 317 316 315 314 314 313 313 313 313 314 314 313 313 313 314 314 314 314 312 310 308 306 305 303 302 301 300 299 297 296 296 295 295 295 296 297 296 295 294 295 296 296 295 294 293 294 294 292 288 285 282 278 273 269 266 264 261 258 257 256 255 255 254 254 254 254
312 313 313 314 314 315 317 318 319 320 321 321 321 321 321 320 319 318 318 317 315 315 314 314 313 312 312 312 312 312 312 312 312 312 313 313 313 313 312 310 308 307 305 304 303 302 301 300 299 298 297 296 296 296 296 296 295 294 294 294 296 296 295 294 294 294 293 291 289 287 283 277 271 268 267 265 262 259 257 256 256 257 256 255 254
311 312 312 313 314 315 316 318 319 320 321 322 322 322 321 320 319 318 317 316 315 315 314 313 312 312 311 311 311 311 311 311 311 311 311 312 312 312 312 311 310 308 306 305 304 303 302 301 300 300 299 298 297 296 296 296 296 295 294 293 293 295 296 296 295 294 293 291 289 288 286 281 275 270 267 266 264 261 259 257 257 258 257 256 255
310 311 311 312 313 314 315 317 318 320 321 322 322 322 321 320 319 318 317 316 315 315 314 313 312 311 311 311 311 311 311 310 310 310 310 310 310 311 311 311 311 310 308 307 305 304 303 302 301 300 300 299 298 297 296 296 297 297 296 294 293 294 296 297 296 295 293 291 289 287 286 283 279 274 271 268 266 263 261 258 257 257 257 257 256
308 309 310 311 312 314 315 316 318 320 321 322 322 322 321 319 318 318 317 316 315 314 314 313 312 311 310 310 310 310 310 310 310 310 310 309 309 309 309 309 309 309 309 308 307 305 304 303 302 301 300 300 298 297 297 297 297 297 297 296 296 296 298 298 297 295 294 292 289 287 286 283 280 278 275 272 268 265 263 260 258 256 255 255 255
306 308 310 311 312 313 314 316 318 319 320 321 321 321 320 319 318 317 316 315 314 313 313 312 311 310 309 309 308 308 308 308 308 308 308 308 308 308 308 307 308 308 308 308 308 307 306 304 303 301 300 299 298 297 296 296 297 297 297 297 297 298 300 299 297 295 293 292 290 288 286 285 282 280 278 275 271 267 263 261 259 256 253 251 251
305 307 309 310 311 313 314 315 317 318 319 320 321 321 320 319 317 316 315 314 313 313 312 311 310 309 308 308 307 307 306 306 306 307 307 307 307 308 307 307 306 307 307 307 308 308 307 306 304 302 301 300 298 297 296 295 296 296 297 297 298 299 300 300 298 296 293 291 289 287 287 286 284 282 279 277 272 267 264 262 260 256 253 251 249
304 306 308 309 311 312 313 314 316 317 318 319 320 320 319 318 317 315 314 313 313 312 311 310 309 308 307 307 306 306 306 306 306 306 306 306 306 306 307 306 306 306 306 306 306 307 307 306 305 304 302 301 299 297 295 294 294 295 296 296 297 298 299 299 299 298 295 291 288 286 285 285 284 283 281 279 274 267 263 261 259 256 253 251 250
303 305 307 309 310 312 313 314 315 316 317 318 319 319 318 318 316 314 313 312 312 311 310 309 308 307 307 306 306 305 305 305 305 305 305 305 305 305 305 305 305 305 305 305 305 306 306 305 305 304 303 301 300 298 296 294 295 295 296 295 296 297 298 298 298 298 297 293 289 287 285 284 283 281 280 280 277 272 266 261 258 256 254 252 251